Location: Newark
(34.1333°N, 7.9667°W)
Time: 02:35:40
(UTC+00:00)

Transit 4A - All Passes

Search period start: 04 December 2021 00:00
Search period end: 14 December 2021 00:00
Orbit: 866 x 978 km, 66.8° (Epoch: 03 December)

Date Brightness Start Highest point End Pass type
(mag) Time Alt. Az. Time Alt. Az. Time Alt. Az.
04 Dec - 03:16:31 10° NNE 03:19:22 13° NE 03:22:13 10° ENE visible
04 Dec - 05:00:21 10° NNW 05:06:41 78° ENE 05:13:05 10° SSE visible
04 Dec - 06:49:15 10° WNW 06:52:18 14° WSW 06:55:21 10° SW visible
04 Dec - 18:18:24 10° SSE 18:23:16 28° ESE 18:28:14 10° NE visible
04 Dec - 20:04:01 10° SW 20:09:23 37° WNW 20:14:54 10° N visible
05 Dec - 03:24:40 10° N 03:29:03 19° NE 03:33:27 10° E visible
05 Dec - 05:09:40 10° NNW 05:15:57 71° WSW 05:22:18 10° SSE visible
05 Dec - 18:26:53 10° S 18:32:22 45° ESE 18:37:59 10° NE visible
05 Dec - 20:14:07 10° WSW 20:18:52 25° NW 20:23:46 10° N visible
06 Dec - 03:33:19 10° N 03:38:38 28° NE 03:43:59 10° ESE visible
06 Dec - 05:19:09 10° NW 05:25:09 46° WSW 05:31:12 10° S visible
06 Dec - 18:35:45 10° SSW 18:41:32 71° ESE 18:47:29 10° NNE visible
06 Dec - 20:24:43 10° W 20:28:29 17° NW 20:32:20 10° N visible
07 Dec - 03:42:13 10° NNW 03:48:08 40° ENE 03:54:06 10° SE visible
07 Dec - 05:28:54 10° NW 05:34:18 30° WSW 05:39:42 10° SSW visible
07 Dec - 17:02:58 10° SE 17:05:17 12° ESE 17:07:37 10° ENE daylight
07 Dec - 18:44:58 10° SSW 18:50:48 75° WNW 18:56:48 10° NNE visible
07 Dec - 20:36:15 10° WNW 20:38:12 12° NW 20:40:10 10° NNW visible
08 Dec - 02:09:35 10° NE 02:09:54 10° NE 02:10:14 10° NE night (unlit)
08 Dec - 03:51:17 10° NNW 03:57:32 60° ENE 04:03:50 10° SE visible
08 Dec - 05:39:05 10° WNW 05:43:21 19° WSW 05:47:39 10° SSW visible
08 Dec - 17:10:03 10° SSE 17:14:16 21° ESE 17:18:33 10° ENE daylight
08 Dec - 18:54:31 10° SW 19:00:09 49° WNW 19:05:57 10° NNE visible
09 Dec - 02:16:09 10° NNE 02:19:41 15° NE 02:23:12 10° E night (unlit)
09 Dec - 04:00:30 10° NNW 04:06:51 89° ENE 04:13:16 10° SSE visible
09 Dec - 05:50:28 10° W 05:52:21 11° W 05:54:15 10° WSW visible
09 Dec - 17:18:12 10° S 17:23:20 33° ESE 17:28:35 10° NE daylight
09 Dec - 19:04:23 10° WSW 19:09:35 32° NW 19:14:56 10° N visible
10 Dec - 02:24:33 10° N 02:29:20 22° NE 02:34:08 10° E night (unlit)
10 Dec - 04:09:52 10° NW 04:16:06 61° WSW 04:22:22 10° S visible
10 Dec - 17:26:49 10° S 17:32:27 53° ESE 17:38:15 10° NE daylight
10 Dec - 19:14:38 10° WSW 19:19:07 22° NW 19:23:42 10° N visible
11 Dec - 02:33:19 10° N 02:38:53 32° NE 02:44:29 10° ESE night (unlit)
11 Dec - 04:19:27 10° NW 04:25:16 39° WSW 04:31:08 10° S visible
11 Dec - 17:35:50 10° SSW 17:41:40 83° ESE 17:47:41 10° NNE daylight
11 Dec - 19:25:28 10° W 19:28:46 15° NW 19:32:07 10° NNW visible
12 Dec - 02:42:16 10° NNW 02:48:21 47° ENE 02:54:27 10° SE night (unlit)
12 Dec - 04:29:19 10° NW 04:34:23 26° WSW 04:39:28 10° SSW visible
12 Dec - 16:02:06 10° SE 16:05:19 15° ESE 16:08:33 10° ENE daylight
12 Dec - 17:45:10 10° SW 17:50:58 65° WNW 17:56:56 10° NNE visible
13 Dec - 01:08:04 10° NNE 01:10:15 12° NE 01:12:26 10° ENE night (unlit)
13 Dec - 02:51:24 10° NNW 02:57:43 70° ENE 03:04:04 10° SE night (unlit)
13 Dec - 04:39:44 10° WNW 04:43:25 16° WSW 04:47:07 10° SW night (unlit)
13 Dec - 16:09:43 10° SSE 16:14:20 25° ESE 16:19:02 10° NE daylight
13 Dec - 17:54:49 10° SW 18:00:20 42° WNW 18:06:02 10° NNE visible
